Home > Weather > Sheboygan > Past weeks

Flag for USA Past Weather in Sheboygan, Wisconsin, USA — Yesterday and Last 2 Weeks

Now
72 °F

Thunderstorms. Mostly cloudy.


Feels Like: 70 °F
Forecast: 73 / 87 °F
Wind: 15 mph from South

Location: Sheboygan County Memorial Airport

Current Time: Jul 24, 2016 at 3:59:57 AM

Latest Report: Jul 24, 2016 at 3:00 AM


Visibility: 10 mi

Pressure: 29.87 "Hg

Humidity: 87%

Dew Point: 68 °F

Location of SheboyganLocation

Past Weather in Sheboygan — Graph

°F

Sheboygan Temperature Yesterday

Maximum temperature yesterday: 85 °F (at 10:53 AM)
Minimum temperature yesterday: 68 °F (at 5:03 AM)
Average temperature yesterday: 77 °F

High & Low Weather Summary for the Past Weeks

 TemperatureHumidityPressure
High91 °F (Jul 22, 3:53 PM)100% (Jul 16, 5:04 AM)30.27 "Hg (Jul 16, 5:04 AM)
Low49 °F (Jul 16, 5:04 AM)41% (Jul 22, 3:53 PM)29.68 "Hg (Jul 13, 5:53 PM)
Average72 °F74%29.97 "Hg
* Reported Jul 9 1:53 AM — Jul 24 1:53 AM, Sheboygan, Weather by CustomWeather, © 2016

Note: Actual official high and low records may vary slightly from our data, if they occured in-between our weather recording intervals... More about our weather records

Advertising

Sheboygan Weather History for the Previous 24 Hours

Scroll right to see more
 ConditionsComfort  
Time TempWeatherWind HumidityBarometerVisibility
1:53 AM
Sun, Jul 24
72 °FPassing clouds.14 mph87%29.86 "Hg10 mi
12:53 AM71 °FLight rain. Passing clouds.10 mph87%29.88 "Hg10 mi
11:53 PM
Sat, Jul 23
73 °FOvercast.12 mph90%29.89 "Hg10 mi
10:53 PM73 °FClear.7 mph94%29.89 "Hg8 mi
9:53 PM74 °FLight rain. Overcast.10 mph91%29.90 "Hg10 mi
8:53 PM76 °FLight rain. Scattered clouds.8 mph91%29.91 "Hg7 mi
7:53 PM77 °FFog.6 mph90%29.91 "Hg4 mi
6:53 PM77 °FFog.No wind90%29.90 "Hg6 mi
5:53 PM77 °FLight rain. Fog.5 mph90%29.92 "Hg6 mi
4:53 PM79 °FScattered clouds.8 mph74%29.96 "Hg10 mi
3:53 PM82 °FSunny.5 mph70%29.96 "Hg10 mi
2:53 PM84 °FSunny.6 mph63%29.96 "Hg10 mi
1:53 PM83 °FSunny.No wind63%29.98 "Hg10 mi
12:53 PM81 °FSunny.7 mph60%29.98 "Hg10 mi
11:53 AM81 °FSunny.5 mph60%29.99 "Hg10 mi
10:53 AM85 °FSunny.9 mph59%29.97 "Hg10 mi
9:53 AM83 °FSunny.6 mph59%29.97 "Hg10 mi
8:53 AM82 °FSunny.8 mph67%29.97 "Hg10 mi
7:53 AM78 °FSunny.No wind82%29.97 "Hg10 mi
6:53 AM73 °FSunny.5 mph90%29.96 "Hg7 mi
6:00 AM68 °FFog.No wind96%29.99 "Hg2 mi
5:03 AM68 °FFog.No wind96%29.97 "Hg1 mi
3:53 AM70 °FClear.3 mph93%29.96 "Hg7 mi
Weather by CustomWeather, © 2016

See weather overviewHow to use our weather pages